owner,sensor,date,latitude,longitude,vertical_datum,sea_water_practical_salinity,qcFlag 
DISL,ioos:station:DISL:MBLA:1,2010-05-01T00:03:00Z,30.4367,-88.0117,2.954,8.64,1111122 
DISL,ioos:station:DISL:MBLA:1,2010-05-01T00:05:00Z,30.4367,-88.0117,2.451,8.64,1111122 
DISL,ioos:station:DISL:MBLA:1,2010-05-01T00:07:00Z,30.4367,-88.0117,2.009,7.49,1111122 
DISL,ioos:station:DISL:MBLA:1,2010-05-01T00:10:00Z,30.4367,-88.0117,1.5,6.32,1111122 
DISL,ioos:station:DISL:MBLA:1,2010-05-01T00:12:00Z,30.4367,-88.0117,0.957,5.67,1111122 
DISL,ioos:station:DISL:MBLA:1,2010-05-01T00:15:00Z,30.4367,-88.0117,0.429,5.68,1111122 
DISL,ioos:station:DISL:MBLA:1,2010-05-01T01:03:00Z,30.4367,-88.0117,2.958,8.41,1111122 
DISL,ioos:station:DISL:MBLA:1,2010-05-01T01:05:00Z,30.4367,-88.0117,2.515,7.63,1111122 
DISL,ioos:station:DISL:MBLA:1,2010-05-01T01:07:00Z,30.4367,-88.0117,2.012,6.71,1111122 
DISL,ioos:station:DISL:MBLA:1,2010-05-01T01:10:00Z,30.4367,-88.0117,1.495,5.62,1111122 
DISL,ioos:station:DISL:MBLA:1,2010-05-01T01:12:00Z,30.4367,-88.0117,1.12,5.53,1111122 
DISL,ioos:station:DISL:MBLA:1,2010-05-01T01:15:00Z,30.4367,-88.0117,0.476,4.66,1111122 
DISL,ioos:station:DISL:MBLA:1,2010-05-01T02:02:00Z,30.4367,-88.0117,2.907,7.25,1111122 
DISL,ioos:station:DISL:MBLA:1,2010-05-01T02:05:00Z,30.4367,-88.0117,2.468,6.55,1111122 
DISL,ioos:station:DISL:MBLA:1,2010-05-01T02:07:00Z,30.4367,-88.0117,2.014,6.47,1111122 
DISL,ioos:station:DISL:MBLA:1,2010-05-01T02:10:00Z,30.4367,-88.0117,1.52,5.84,1111122 
DISL,ioos:station:DISL:MBLA:1,2010-05-01T02:12:00Z,30.4367,-88.0117,0.991,5.14,1111122 
DISL,ioos:station:DISL:MBLA:1,2010-05-01T02:14:00Z,30.4367,-88.0117,0.316,5.05,1111122 
DISL,ioos:station:DISL:MBLA:1,2010-05-01T03:03:00Z,30.4367,-88.0117,2.992,7.71,1111122 
DISL,ioos:station:DISL:MBLA:1,2010-05-01T03:05:00Z,30.4367,-88.0117,2.512,6.37,1111122 
DISL,ioos:station:DISL:MBLA:1,2010-05-01T03:07:00Z,30.4367,-88.0117,2.035,6.1,1111122 
DISL,ioos:station:DISL:MBLA:1,2010-05-01T03:10:00Z,30.4367,-88.0117,1.563,6.03,1111122 
DISL,ioos:station:DISL:MBLA:1,2010-05-01T03:12:00Z,30.4367,-88.0117,1.01,5.83,1111122 
DISL,ioos:station:DISL:MBLA:1,2010-05-01T03:15:00Z,30.4367,-88.0117,0.459,5.74,1111122 
DISL,ioos:station:DISL:MBLA:1,2010-05-01T04:02:00Z,30.4367,-88.0117,2.931,7.74,1111122 
DISL,ioos:station:DISL:MBLA:1,2010-05-01T04:05:00Z,30.4367,-88.0117,2.532,6.95,1111122 
DISL,ioos:station:DISL:MBLA:1,2010-05-01T04:07:00Z,30.4367,-88.0117,2.03,6.38,1111122 
DISL,ioos:station:DISL:MBLA:1,2010-05-01T04:10:00Z,30.4367,-88.0117,1.489,6.14,1111122 
DISL,ioos:station:DISL:MBLA:1,2010-05-01T04:12:00Z,30.4367,-88.0117,1.052,6.05,1111122 
DISL,ioos:station:DISL:MBLA:1,2010-05-01T04:15:00Z,30.4367,-88.0117,0.327,5.99,1111122 
DISL,ioos:station:DISL:MBLA:1,2010-05-01T05:02:00Z,30.4367,-88.0117,2.969,7.72,1111122 
DISL,ioos:station:DISL:MBLA:1,2010-05-01T05:05:00Z,30.4367,-88.0117,2.531,6.91,1111122 
DISL,ioos:station:DISL:MBLA:1,2010-05-01T05:07:00Z,30.4367,-88.0117,2.037,6.26,1111122 
DISL,ioos:station:DISL:MBLA:1,2010-05-01T05:10:00Z,30.4367,-88.0117,1.321,6.09,1111122 
DISL,ioos:station:DISL:MBLA:1,2010-05-01T05:12:00Z,30.4367,-88.0117,1.035,6.03,1111122 
DISL,ioos:station:DISL:MBLA:1,2010-05-01T05:15:00Z,30.4367,-88.0117,0.372,6.01,1111122 
DISL,ioos:station:DISL:MBLA:1,2010-05-01T06:03:00Z,30.4367,-88.0117,2.999,7.68,1111122 
DISL,ioos:station:DISL:MBLA:1,2010-05-01T06:05:00Z,30.4367,-88.0117,2.425,6.48,1111122 
DISL,ioos:station:DISL:MBLA:1,2010-05-01T06:07:00Z,30.4367,-88.0117,2.011,6.08,1111122 
DISL,ioos:station:DISL:MBLA:1,2010-05-01T06:10:00Z,30.4367,-88.0117,1.566,6.01,1111122 
DISL,ioos:station:DISL:MBLA:1,2010-05-01T06:12:00Z,30.4367,-88.0117,1.022,6.0,1111122 
DISL,ioos:station:DISL:MBLA:1,2010-05-01T06:15:00Z,30.4367,-88.0117,0.461,5.96,1111122 
DISL,ioos:station:DISL:MBLA:1,2010-05-01T07:03:00Z,30.4367,-88.0117,3.166,7.02,1111122 
DISL,ioos:station:DISL:MBLA:1,2010-05-01T07:05:00Z,30.4367,-88.0117,2.473,6.01,1111122 
DISL,ioos:station:DISL:MBLA:1,2010-05-01T07:08:00Z,30.4367,-88.0117,2.003,5.92,1111122 
DISL,ioos:station:DISL:MBLA:1,2010-05-01T07:10:00Z,30.4367,-88.0117,1.71,5.87,1111122 
DISL,ioos:station:DISL:MBLA:1,2010-05-01T07:13:00Z,30.4367,-88.0117,0.901,5.86,1111122 
DISL,ioos:station:DISL:MBLA:1,2010-05-01T07:16:00Z,30.4367,-88.0117,0.658,5.84,1111122 
DISL,ioos:station:DISL:MBLA:1,2010-05-01T08:03:00Z,30.4367,-88.0117,2.953,6.31,1111122 
DISL,ioos:station:DISL:MBLA:1,2010-05-01T08:05:00Z,30.4367,-88.0117,2.527,5.87,1111122 
DISL,ioos:station:DISL:MBLA:1,2010-05-01T08:07:00Z,30.4367,-88.0117,1.942,5.75,1111122 
DISL,ioos:station:DISL:MBLA:1,2010-05-01T08:10:00Z,30.4367,-88.0117,1.613,5.7,1111122 
DISL,ioos:station:DISL:MBLA:1,2010-05-01T08:12:00Z,30.4367,-88.0117,1.092,5.69,1111122 
DISL,ioos:station:DISL:MBLA:1,2010-05-01T08:15:00Z,30.4367,-88.0117,0.613,5.72,1111122 
DISL,ioos:station:DISL:MBLA:1,2010-05-01T09:02:00Z,30.4367,-88.0117,2.985,6.23,1111122 
DISL,ioos:station:DISL:MBLA:1,2010-05-01T09:05:00Z,30.4367,-88.0117,2.374,5.86,1111122 
DISL,ioos:station:DISL:MBLA:1,2010-05-01T09:08:00Z,30.4367,-88.0117,1.924,5.77,1111122 
DISL,ioos:station:DISL:MBLA:1,2010-05-01T09:10:00Z,30.4367,-88.0117,1.37,5.72,1111122 
DISL,ioos:station:DISL:MBLA:1,2010-05-01T09:13:00Z,30.4367,-88.0117,0.989,5.74,1111122 
DISL,ioos:station:DISL:MBLA:1,2010-05-01T09:15:00Z,30.4367,-88.0117,0.573,5.76,1111122 
DISL,ioos:station:DISL:MBLA:1,2010-05-01T10:02:00Z,30.4367,-88.0117,2.932,5.98,1111122 
DISL,ioos:station:DISL:MBLA:1,2010-05-01T10:05:00Z,30.4367,-88.0117,2.518,5.96,1111122 
DISL,ioos:station:DISL:MBLA:1,2010-05-01T10:07:00Z,30.4367,-88.0117,2.076,5.95,1111122 
DISL,ioos:station:DISL:MBLA:1,2010-05-01T10:10:00Z,30.4367,-88.0117,1.522,5.95,1111122 
DISL,ioos:station:DISL:MBLA:1,2010-05-01T10:12:00Z,30.4367,-88.0117,1.076,5.97,1111122 
DISL,ioos:station:DISL:MBLA:1,2010-05-01T10:15:00Z,30.4367,-88.0117,0.51,5.95,1111122 
DISL,ioos:station:DISL:MBLA:1,2010-05-01T11:03:00Z,30.4367,-88.0117,2.832,6.2,1111122 
DISL,ioos:station:DISL:MBLA:1,2010-05-01T11:05:00Z,30.4367,-88.0117,2.581,6.18,1111122 
DISL,ioos:station:DISL:MBLA:1,2010-05-01T11:07:00Z,30.4367,-88.0117,2.044,6.17,1111122 
DISL,ioos:station:DISL:MBLA:1,2010-05-01T11:10:00Z,30.4367,-88.0117,1.509,6.18,1111122 
DISL,ioos:station:DISL:MBLA:1,2010-05-01T11:13:00Z,30.4367,-88.0117,0.838,6.2,1111122 
DISL,ioos:station:DISL:MBLA:1,2010-05-01T11:15:00Z,30.4367,-88.0117,0.49,6.21,1111122 
DISL,ioos:station:DISL:MBLA:1,2010-05-01T14:02:00Z,30.4367,-88.0117,2.879,6.84,1111122 
DISL,ioos:station:DISL:MBLA:1,2010-05-01T14:05:00Z,30.4367,-88.0117,2.54,6.83,1111122 
DISL,ioos:station:DISL:MBLA:1,2010-05-01T14:08:00Z,30.4367,-88.0117,2.052,6.76,1111122 
DISL,ioos:station:DISL:MBLA:1,2010-05-01T14:10:00Z,30.4367,-88.0117,1.465,6.76,1111122 
DISL,ioos:station:DISL:MBLA:1,2010-05-01T14:12:00Z,30.4367,-88.0117,1.036,6.78,1111122 
DISL,ioos:station:DISL:MBLA:1,2010-05-01T14:15:00Z,30.4367,-88.0117,0.647,6.79,1111122 
DISL,ioos:station:DISL:MBLA:1,2010-05-01T15:02:00Z,30.4367,-88.0117,2.999,7.31,1111122 
DISL,ioos:station:DISL:MBLA:1,2010-05-01T15:05:00Z,30.4367,-88.0117,2.413,7.06,1111122 
DISL,ioos:station:DISL:MBLA:1,2010-05-01T15:07:00Z,30.4367,-88.0117,2.018,7.0,1111122 
DISL,ioos:station:DISL:MBLA:1,2010-05-01T15:10:00Z,30.4367,-88.0117,1.481,7.03,1111122 
DISL,ioos:station:DISL:MBLA:1,2010-05-01T15:12:00Z,30.4367,-88.0117,0.772,7.02,1111122 
DISL,ioos:station:DISL:MBLA:1,2010-05-01T15:15:00Z,30.4367,-88.0117,0.332,7.03,1111122 
DISL,ioos:station:DISL:MBLA:1,2010-05-01T16:02:00Z,30.4367,-88.0117,3.002,7.39,1111122 
DISL,ioos:station:DISL:MBLA:1,2010-05-01T16:05:00Z,30.4367,-88.0117,2.331,7.35,1111122 
DISL,ioos:station:DISL:MBLA:1,2010-05-01T16:07:00Z,30.4367,-88.0117,1.98,7.37,1111122 
DISL,ioos:station:DISL:MBLA:1,2010-05-01T16:10:00Z,30.4367,-88.0117,1.424,7.42,1111122 
DISL,ioos:station:DISL:MBLA:1,2010-05-01T16:13:00Z,30.4367,-88.0117,0.703,7.44,1111122 
DISL,ioos:station:DISL:MBLA:1,2010-05-01T16:15:00Z,30.4367,-88.0117,0.538,7.43,1111122 
DISL,ioos:station:DISL:MBLA:1,2010-05-01T17:02:00Z,30.4367,-88.0117,3.044,7.92,1111122 
DISL,ioos:station:DISL:MBLA:1,2010-05-01T17:05:00Z,30.4367,-88.0117,2.373,7.86,1111122 
DISL,ioos:station:DISL:MBLA:1,2010-05-01T17:08:00Z,30.4367,-88.0117,1.944,7.87,1111122 
DISL,ioos:station:DISL:MBLA:1,2010-05-01T17:11:00Z,30.4367,-88.0117,1.361,7.87,1111122 
DISL,ioos:station:DISL:MBLA:1,2010-05-01T17:13:00Z,30.4367,-88.0117,0.911,7.89,1111122 
DISL,ioos:station:DISL:MBLA:1,2010-05-01T17:15:00Z,30.4367,-88.0117,0.391,7.89,1111122 
DISL,ioos:station:DISL:MBLA:1,2010-05-01T18:03:00Z,30.4367,-88.0117,3.132,8.49,1111122 
DISL,ioos:station:DISL:MBLA:1,2010-05-01T18:05:00Z,30.4367,-88.0117,2.445,8.4,1111122 
DISL,ioos:station:DISL:MBLA:1,2010-05-01T18:07:00Z,30.4367,-88.0117,1.96,8.4,1111122 
DISL,ioos:station:DISL:MBLA:1,2010-05-01T18:10:00Z,30.4367,-88.0117,1.49,8.39,1111122 
DISL,ioos:station:DISL:MBLA:1,2010-05-01T18:12:00Z,30.4367,-88.0117,0.888,8.39,1111122 
DISL,ioos:station:DISL:MBLA:1,2010-05-01T18:15:00Z,30.4367,-88.0117,0.463,8.39,1111122 
DISL,ioos:station:DISL:MBLA:1,2010-05-01T19:02:00Z,30.4367,-88.0117,2.935,8.57,1111122 
DISL,ioos:station:DISL:MBLA:1,2010-05-01T19:05:00Z,30.4367,-88.0117,2.55,8.53,1111122 
DISL,ioos:station:DISL:MBLA:1,2010-05-01T19:08:00Z,30.4367,-88.0117,2.021,8.51,1111122 
DISL,ioos:station:DISL:MBLA:1,2010-05-01T19:10:00Z,30.4367,-88.0117,1.608,8.46,1111122 
DISL,ioos:station:DISL:MBLA:1,2010-05-01T19:12:00Z,30.4367,-88.0117,0.787,8.45,1111122 
DISL,ioos:station:DISL:MBLA:1,2010-05-01T19:15:00Z,30.4367,-88.0117,0.754,8.43,1111122 
DISL,ioos:station:DISL:MBLA:1,2010-05-01T20:03:00Z,30.4367,-88.0117,2.984,8.35,1111122 
DISL,ioos:station:DISL:MBLA:1,2010-05-01T20:05:00Z,30.4367,-88.0117,2.591,8.12,1111122 
DISL,ioos:station:DISL:MBLA:1,2010-05-01T20:08:00Z,30.4367,-88.0117,2.002,7.96,1111122 
DISL,ioos:station:DISL:MBLA:1,2010-05-01T20:11:00Z,30.4367,-88.0117,1.493,7.96,1111122 
DISL,ioos:station:DISL:MBLA:1,2010-05-01T20:13:00Z,30.4367,-88.0117,0.97,7.94,1111122 
DISL,ioos:station:DISL:MBLA:1,2010-05-01T20:16:00Z,30.4367,-88.0117,0.6,7.94,1111122 
DISL,ioos:station:DISL:MBLA:1,2010-05-01T21:03:00Z,30.4367,-88.0117,2.975,7.8,1111122 
DISL,ioos:station:DISL:MBLA:1,2010-05-01T21:05:00Z,30.4367,-88.0117,2.445,7.5,1111122 
DISL,ioos:station:DISL:MBLA:1,2010-05-01T21:08:00Z,30.4367,-88.0117,2.067,7.47,1111122 
DISL,ioos:station:DISL:MBLA:1,2010-05-01T21:10:00Z,30.4367,-88.0117,1.548,7.43,1111122 
DISL,ioos:station:DISL:MBLA:1,2010-05-01T21:13:00Z,30.4367,-88.0117,1.097,7.4,1111122 
DISL,ioos:station:DISL:MBLA:1,2010-05-01T21:16:00Z,30.4367,-88.0117,0.414,7.39,1111122 
DISL,ioos:station:DISL:MBLA:1,2010-05-01T22:02:00Z,30.4367,-88.0117,2.977,8.56,1111122 
DISL,ioos:station:DISL:MBLA:1,2010-05-01T22:05:00Z,30.4367,-88.0117,2.627,7.51,1111122 
DISL,ioos:station:DISL:MBLA:1,2010-05-01T22:07:00Z,30.4367,-88.0117,1.953,7.39,1111122 
DISL,ioos:station:DISL:MBLA:1,2010-05-01T22:11:00Z,30.4367,-88.0117,1.386,7.3,1111122 
DISL,ioos:station:DISL:MBLA:1,2010-05-01T22:13:00Z,30.4367,-88.0117,0.866,7.28,1111122 
DISL,ioos:station:DISL:MBLA:1,2010-05-01T22:16:00Z,30.4367,-88.0117,0.452,7.28,1111122 
DISL,ioos:station:DISL:MBLA:1,2010-05-01T23:03:00Z,30.4367,-88.0117,2.949,8.52,1111122 
DISL,ioos:station:DISL:MBLA:1,2010-05-01T23:05:00Z,30.4367,-88.0117,2.525,7.91,1111122 
DISL,ioos:station:DISL:MBLA:1,2010-05-01T23:08:00Z,30.4367,-88.0117,2.05,7.58,1111122 
DISL,ioos:station:DISL:MBLA:1,2010-05-01T23:10:00Z,30.4367,-88.0117,1.627,7.47,1111122 
DISL,ioos:station:DISL:MBLA:1,2010-05-01T23:13:00Z,30.4367,-88.0117,1.027,7.44,1111122 
DISL,ioos:station:DISL:MBLA:1,2010-05-01T23:15:00Z,30.4367,-88.0117,0.279,7.42,1111122 
DISL,ioos:station:DISL:MBLA:1,2010-05-02T00:03:00Z,30.4367,-88.0117,3.036,8.31,1111122 
DISL,ioos:station:DISL:MBLA:1,2010-05-02T00:05:00Z,30.4367,-88.0117,2.574,7.61,1111122 
DISL,ioos:station:DISL:MBLA:1,2010-05-02T00:08:00Z,30.4367,-88.0117,2.031,7.14,1111122 
DISL,ioos:station:DISL:MBLA:1,2010-05-02T00:10:00Z,30.4367,-88.0117,1.552,7.01,1111122 
DISL,ioos:station:DISL:MBLA:1,2010-05-02T00:13:00Z,30.4367,-88.0117,0.861,6.89,1111122 
DISL,ioos:station:DISL:MBLA:1,2010-05-02T00:15:00Z,30.4367,-88.0117,0.357,6.87,1111122 
DISL,ioos:station:DISL:MBLA:1,2010-05-02T01:02:00Z,30.4367,-88.0117,3.009,8.93,1111122 
DISL,ioos:station:DISL:MBLA:1,2010-05-02T01:05:00Z,30.4367,-88.0117,2.473,7.31,1111122 
DISL,ioos:station:DISL:MBLA:1,2010-05-02T01:07:00Z,30.4367,-88.0117,2.019,6.81,1111122 
DISL,ioos:station:DISL:MBLA:1,2010-05-02T01:10:00Z,30.4367,-88.0117,1.517,6.5,1111122 
DISL,ioos:station:DISL:MBLA:1,2010-05-02T01:13:00Z,30.4367,-88.0117,1.167,6.31,1111122 
DISL,ioos:station:DISL:MBLA:1,2010-05-02T01:15:00Z,30.4367,-88.0117,0.452,6.22,1111122 
DISL,ioos:station:DISL:MBLA:1,2010-05-02T02:03:00Z,30.4367,-88.0117,2.957,7.82,1111122 
DISL,ioos:station:DISL:MBLA:1,2010-05-02T02:05:00Z,30.4367,-88.0117,2.466,6.52,1111122 
DISL,ioos:station:DISL:MBLA:1,2010-05-02T02:08:00Z,30.4367,-88.0117,2.07,6.07,1111122 
DISL,ioos:station:DISL:MBLA:1,2010-05-02T02:10:00Z,30.4367,-88.0117,1.421,5.66,1111122 
DISL,ioos:station:DISL:MBLA:1,2010-05-02T02:12:00Z,30.4367,-88.0117,0.921,5.49,1111122 
DISL,ioos:station:DISL:MBLA:1,2010-05-02T02:15:00Z,30.4367,-88.0117,0.739,5.43,1111122 
DISL,ioos:station:DISL:MBLA:1,2010-05-02T03:03:00Z,30.4367,-88.0117,3.102,8.5,1111122 
DISL,ioos:station:DISL:MBLA:1,2010-05-02T03:05:00Z,30.4367,-88.0117,2.571,6.12,1111122 
DISL,ioos:station:DISL:MBLA:1,2010-05-02T03:08:00Z,30.4367,-88.0117,2.102,5.42,1111122 
DISL,ioos:station:DISL:MBLA:1,2010-05-02T03:10:00Z,30.4367,-88.0117,1.518,5.34,1111122 
DISL,ioos:station:DISL:MBLA:1,2010-05-02T03:13:00Z,30.4367,-88.0117,1.053,5.3,1111122 
DISL,ioos:station:DISL:MBLA:1,2010-05-02T03:16:00Z,30.4367,-88.0117,0.447,5.3,1111122 
DISL,ioos:station:DISL:MBLA:1,2010-05-02T04:02:00Z,30.4367,-88.0117,2.875,6.14,1111122 
DISL,ioos:station:DISL:MBLA:1,2010-05-02T04:05:00Z,30.4367,-88.0117,2.485,5.63,1111122 
DISL,ioos:station:DISL:MBLA:1,2010-05-02T04:07:00Z,30.4367,-88.0117,1.891,5.34,1111122 
DISL,ioos:station:DISL:MBLA:1,2010-05-02T04:10:00Z,30.4367,-88.0117,1.624,5.32,1111122 
DISL,ioos:station:DISL:MBLA:1,2010-05-02T04:12:00Z,30.4367,-88.0117,0.929,5.24,1111122 
DISL,ioos:station:DISL:MBLA:1,2010-05-02T04:15:00Z,30.4367,-88.0117,0.532,5.2,1111122 
DISL,ioos:station:DISL:MBLA:1,2010-05-02T05:03:00Z,30.4367,-88.0117,2.984,6.15,1111122 
DISL,ioos:station:DISL:MBLA:1,2010-05-02T05:05:00Z,30.4367,-88.0117,2.481,5.31,1111122 
DISL,ioos:station:DISL:MBLA:1,2010-05-02T05:08:00Z,30.4367,-88.0117,1.922,5.05,1111122 
DISL,ioos:station:DISL:MBLA:1,2010-05-02T05:10:00Z,30.4367,-88.0117,1.563,5.02,1111122 
DISL,ioos:station:DISL:MBLA:1,2010-05-02T05:13:00Z,30.4367,-88.0117,0.786,4.96,1111122 
DISL,ioos:station:DISL:MBLA:1,2010-05-02T05:15:00Z,30.4367,-88.0117,0.277,4.96,1111122 
DISL,ioos:station:DISL:MBLA:1,2010-05-02T06:03:00Z,30.4367,-88.0117,2.946,5.51,1111122 
DISL,ioos:station:DISL:MBLA:1,2010-05-02T06:05:00Z,30.4367,-88.0117,2.461,4.87,1111122 
DISL,ioos:station:DISL:MBLA:1,2010-05-02T06:08:00Z,30.4367,-88.0117,1.966,4.71,1111122 
DISL,ioos:station:DISL:MBLA:1,2010-05-02T06:11:00Z,30.4367,-88.0117,1.487,4.64,1111122 
DISL,ioos:station:DISL:MBLA:1,2010-05-02T06:14:00Z,30.4367,-88.0117,0.986,4.55,1111122 
DISL,ioos:station:DISL:MBLA:1,2010-05-02T06:16:00Z,30.4367,-88.0117,0.455,4.56,1111122 
DISL,ioos:station:DISL:MBLA:1,2010-05-02T07:02:00Z,30.4367,-88.0117,2.962,5.1,1111122 
DISL,ioos:station:DISL:MBLA:1,2010-05-02T07:05:00Z,30.4367,-88.0117,2.521,4.74,1111122 
DISL,ioos:station:DISL:MBLA:1,2010-05-02T07:07:00Z,30.4367,-88.0117,2.088,4.43,1111122 
DISL,ioos:station:DISL:MBLA:1,2010-05-02T07:10:00Z,30.4367,-88.0117,1.402,4.33,1111122 
DISL,ioos:station:DISL:MBLA:1,2010-05-02T07:12:00Z,30.4367,-88.0117,0.878,4.26,1111122 
DISL,ioos:station:DISL:MBLA:1,2010-05-02T07:15:00Z,30.4367,-88.0117,0.265,4.25,1111122 
DISL,ioos:station:DISL:MBLA:1,2010-05-02T08:02:00Z,30.4367,-88.0117,3.031,4.89,1111122 
DISL,ioos:station:DISL:MBLA:1,2010-05-02T08:05:00Z,30.4367,-88.0117,2.554,4.59,1111122 
DISL,ioos:station:DISL:MBLA:1,2010-05-02T08:07:00Z,30.4367,-88.0117,2.135,4.27,1111122 
DISL,ioos:station:DISL:MBLA:1,2010-05-02T08:10:00Z,30.4367,-88.0117,1.476,4.17,1111122 
DISL,ioos:station:DISL:MBLA:1,2010-05-02T08:13:00Z,30.4367,-88.0117,1.086,4.11,1111122 
DISL,ioos:station:DISL:MBLA:1,2010-05-02T08:15:00Z,30.4367,-88.0117,0.604,4.11,1111122 
DISL,ioos:station:DISL:MBLA:1,2010-05-02T09:03:00Z,30.4367,-88.0117,3.065,4.64,1111122 
DISL,ioos:station:DISL:MBLA:1,2010-05-02T09:05:00Z,30.4367,-88.0117,2.332,4.41,1111122 
DISL,ioos:station:DISL:MBLA:1,2010-05-02T09:08:00Z,30.4367,-88.0117,2.007,4.33,1111122 
DISL,ioos:station:DISL:MBLA:1,2010-05-02T09:10:00Z,30.4367,-88.0117,1.628,4.3,1111122 
DISL,ioos:station:DISL:MBLA:1,2010-05-02T09:12:00Z,30.4367,-88.0117,1.061,4.27,1111122 
DISL,ioos:station:DISL:MBLA:1,2010-05-02T09:15:00Z,30.4367,-88.0117,0.501,4.24,1111122 
DISL,ioos:station:DISL:MBLA:1,2010-05-02T10:02:00Z,30.4367,-88.0117,3.002,4.68,1111122 
DISL,ioos:station:DISL:MBLA:1,2010-05-02T10:05:00Z,30.4367,-88.0117,2.535,4.54,1111122 
DISL,ioos:station:DISL:MBLA:1,2010-05-02T10:08:00Z,30.4367,-88.0117,2.041,4.5,1111122 
DISL,ioos:station:DISL:MBLA:1,2010-05-02T10:10:00Z,30.4367,-88.0117,1.477,4.41,1111122 
DISL,ioos:station:DISL:MBLA:1,2010-05-02T10:13:00Z,30.4367,-88.0117,0.762,4.45,1111122 
DISL,ioos:station:DISL:MBLA:1,2010-05-02T10:15:00Z,30.4367,-88.0117,0.338,4.4,1111122 
DISL,ioos:station:DISL:MBLA:1,2010-05-02T14:03:00Z,30.4367,-88.0117,3.003,4.86,1111122 
DISL,ioos:station:DISL:MBLA:1,2010-05-02T14:05:00Z,30.4367,-88.0117,2.671,4.85,1111122 
DISL,ioos:station:DISL:MBLA:1,2010-05-02T14:07:00Z,30.4367,-88.0117,2.16,4.85,1111122 
DISL,ioos:station:DISL:MBLA:1,2010-05-02T14:10:00Z,30.4367,-88.0117,1.486,4.81,1111122 
DISL,ioos:station:DISL:MBLA:1,2010-05-02T14:13:00Z,30.4367,-88.0117,1.284,4.81,1111122 
DISL,ioos:station:DISL:MBLA:1,2010-05-02T14:15:00Z,30.4367,-88.0117,0.299,4.78,1111122 
DISL,ioos:station:DISL:MBLA:1,2010-05-02T15:02:00Z,30.4367,-88.0117,3.038,4.95,1111122 
DISL,ioos:station:DISL:MBLA:1,2010-05-02T15:05:00Z,30.4367,-88.0117,2.49,4.9,1111122 
DISL,ioos:station:DISL:MBLA:1,2010-05-02T15:07:00Z,30.4367,-88.0117,1.99,4.83,1111122 
DISL,ioos:station:DISL:MBLA:1,2010-05-02T15:11:00Z,30.4367,-88.0117,1.58,4.82,1111122 
DISL,ioos:station:DISL:MBLA:1,2010-05-02T15:13:00Z,30.4367,-88.0117,0.923,4.83,1111122 
DISL,ioos:station:DISL:MBLA:1,2010-05-02T15:16:00Z,30.4367,-88.0117,0.546,4.85,1111122 
DISL,ioos:station:DISL:MBLA:1,2010-05-02T16:02:00Z,30.4367,-88.0117,3.058,5.64,1111122 
DISL,ioos:station:DISL:MBLA:1,2010-05-02T16:05:00Z,30.4367,-88.0117,2.352,5.46,1111122 
DISL,ioos:station:DISL:MBLA:1,2010-05-02T16:07:00Z,30.4367,-88.0117,1.92,5.24,1111122 
DISL,ioos:station:DISL:MBLA:1,2010-05-02T16:10:00Z,30.4367,-88.0117,1.459,5.18,1111122 
DISL,ioos:station:DISL:MBLA:1,2010-05-02T16:13:00Z,30.4367,-88.0117,0.916,5.1,1111122 
DISL,ioos:station:DISL:MBLA:1,2010-05-02T16:16:00Z,30.4367,-88.0117,0.407,5.08,1111122 
DISL,ioos:station:DISL:MBLA:1,2010-05-02T17:02:00Z,30.4367,-88.0117,3.185,5.96,1111122 
DISL,ioos:station:DISL:MBLA:1,2010-05-02T17:05:00Z,30.4367,-88.0117,2.419,5.61,1111122 
DISL,ioos:station:DISL:MBLA:1,2010-05-02T17:08:00Z,30.4367,-88.0117,1.744,5.61,1111122 
DISL,ioos:station:DISL:MBLA:1,2010-05-02T17:10:00Z,30.4367,-88.0117,1.419,5.62,1111122 
DISL,ioos:station:DISL:MBLA:1,2010-05-02T17:13:00Z,30.4367,-88.0117,1.169,5.67,1111122 
DISL,ioos:station:DISL:MBLA:1,2010-05-02T17:16:00Z,30.4367,-88.0117,0.611,5.71,1111122 
DISL,ioos:station:DISL:MBLA:1,2010-05-02T18:02:00Z,30.4367,-88.0117,3.101,6.43,1111122 
DISL,ioos:station:DISL:MBLA:1,2010-05-02T18:05:00Z,30.4367,-88.0117,2.601,6.43,1111122 
DISL,ioos:station:DISL:MBLA:1,2010-05-02T18:07:00Z,30.4367,-88.0117,2.067,6.33,1111122 
DISL,ioos:station:DISL:MBLA:1,2010-05-02T18:10:00Z,30.4367,-88.0117,1.417,6.29,1111122 
DISL,ioos:station:DISL:MBLA:1,2010-05-02T18:12:00Z,30.4367,-88.0117,0.768,6.31,1111122 
DISL,ioos:station:DISL:MBLA:1,2010-05-02T18:15:00Z,30.4367,-88.0117,0.369,6.34,1111122 
DISL,ioos:station:DISL:MBLA:1,2010-05-02T19:03:00Z,30.4367,-88.0117,3.05,6.55,1111122 
DISL,ioos:station:DISL:MBLA:1,2010-05-02T19:05:00Z,30.4367,-88.0117,2.449,6.5,1111122 
DISL,ioos:station:DISL:MBLA:1,2010-05-02T19:07:00Z,30.4367,-88.0117,1.941,6.48,1111122 
DISL,ioos:station:DISL:MBLA:1,2010-05-02T19:10:00Z,30.4367,-88.0117,1.487,6.47,1111122 
DISL,ioos:station:DISL:MBLA:1,2010-05-02T19:13:00Z,30.4367,-88.0117,1.007,6.47,1111122 
DISL,ioos:station:DISL:MBLA:1,2010-05-02T19:16:00Z,30.4367,-88.0117,0.655,6.46,1111122 
DISL,ioos:station:DISL:MBLA:1,2010-05-02T20:02:00Z,30.4367,-88.0117,3.091,6.63,1111122 
DISL,ioos:station:DISL:MBLA:1,2010-05-02T20:05:00Z,30.4367,-88.0117,2.459,6.55,1111122 
DISL,ioos:station:DISL:MBLA:1,2010-05-02T20:07:00Z,30.4367,-88.0117,1.969,6.51,1111122 
DISL,ioos:station:DISL:MBLA:1,2010-05-02T20:10:00Z,30.4367,-88.0117,1.59,6.48,1111122 
DISL,ioos:station:DISL:MBLA:1,2010-05-02T20:13:00Z,30.4367,-88.0117,0.761,6.47,1111122 
DISL,ioos:station:DISL:MBLA:1,2010-05-02T20:16:00Z,30.4367,-88.0117,0.158,6.47,1111122 
DISL,ioos:station:DISL:MBLA:1,2010-05-02T21:02:00Z,30.4367,-88.0117,3.043,6.68,1111122 
DISL,ioos:station:DISL:MBLA:1,2010-05-02T21:05:00Z,30.4367,-88.0117,2.622,6.51,1111122 
DISL,ioos:station:DISL:MBLA:1,2010-05-02T21:07:00Z,30.4367,-88.0117,1.972,6.49,1111122 
DISL,ioos:station:DISL:MBLA:1,2010-05-02T21:10:00Z,30.4367,-88.0117,1.518,6.48,1111122 
DISL,ioos:station:DISL:MBLA:1,2010-05-02T21:12:00Z,30.4367,-88.0117,1.071,6.49,1111122 
DISL,ioos:station:DISL:MBLA:1,2010-05-02T21:15:00Z,30.4367,-88.0117,0.375,6.48,1111122 
DISL,ioos:station:DISL:MBLA:1,2010-05-02T22:03:00Z,30.4367,-88.0117,2.917,6.51,1111122 
DISL,ioos:station:DISL:MBLA:1,2010-05-02T22:05:00Z,30.4367,-88.0117,2.426,6.3,1111122 
DISL,ioos:station:DISL:MBLA:1,2010-05-02T22:08:00Z,30.4367,-88.0117,2.062,6.23,1111122 
DISL,ioos:station:DISL:MBLA:1,2010-05-02T22:11:00Z,30.4367,-88.0117,1.497,6.06,1111122 
DISL,ioos:station:DISL:MBLA:1,2010-05-02T22:15:00Z,30.4367,-88.0117,1.036,6.01,1111122 
DISL,ioos:station:DISL:MBLA:1,2010-05-02T22:17:00Z,30.4367,-88.0117,0.472,5.98,1111122 
DISL,ioos:station:DISL:MBLA:1,2010-05-02T23:03:00Z,30.4367,-88.0117,3.057,7.0,1111122 
DISL,ioos:station:DISL:MBLA:1,2010-05-02T23:05:00Z,30.4367,-88.0117,2.5,5.97,1111122 
DISL,ioos:station:DISL:MBLA:1,2010-05-02T23:08:00Z,30.4367,-88.0117,2.049,5.76,1111122 
DISL,ioos:station:DISL:MBLA:1,2010-05-02T23:10:00Z,30.4367,-88.0117,1.502,5.54,1111122 
DISL,ioos:station:DISL:MBLA:1,2010-05-02T23:13:00Z,30.4367,-88.0117,0.752,5.49,1111122 
DISL,ioos:station:DISL:MBLA:1,2010-05-02T23:16:00Z,30.4367,-88.0117,0.545,5.43,1111122 
DISL,ioos:station:DISL:MBLA:1,2010-05-03T00:03:00Z,30.4367,-88.0117,2.988,6.71,1111122 
DISL,ioos:station:DISL:MBLA:1,2010-05-03T00:05:00Z,30.4367,-88.0117,2.441,5.6,1111122 
DISL,ioos:station:DISL:MBLA:1,2010-05-03T00:08:00Z,30.4367,-88.0117,1.857,5.51,1111122 
DISL,ioos:station:DISL:MBLA:1,2010-05-03T00:10:00Z,30.4367,-88.0117,1.512,5.47,1111122 
DISL,ioos:station:DISL:MBLA:1,2010-05-03T00:13:00Z,30.4367,-88.0117,1.163,5.49,1111122 
DISL,ioos:station:DISL:MBLA:1,2010-05-03T00:15:00Z,30.4367,-88.0117,0.456,5.51,1111122 
DISL,ioos:station:DISL:MBLA:1,2010-05-03T01:03:00Z,30.4367,-88.0117,3.007,6.37,1111122 
DISL,ioos:station:DISL:MBLA:1,2010-05-03T01:05:00Z,30.4367,-88.0117,2.543,5.83,1111122 
DISL,ioos:station:DISL:MBLA:1,2010-05-03T01:08:00Z,30.4367,-88.0117,1.854,5.7,1111122 
DISL,ioos:station:DISL:MBLA:1,2010-05-03T01:10:00Z,30.4367,-88.0117,1.572,5.62,1111122 
DISL,ioos:station:DISL:MBLA:1,2010-05-03T01:13:00Z,30.4367,-88.0117,0.777,5.6,1111122 
DISL,ioos:station:DISL:MBLA:1,2010-05-03T01:15:00Z,30.4367,-88.0117,0.571,5.59,1111122 
DISL,ioos:station:DISL:MBLA:1,2010-05-03T02:03:00Z,30.4367,-88.0117,2.986,5.76,1111122 
DISL,ioos:station:DISL:MBLA:1,2010-05-03T02:05:00Z,30.4367,-88.0117,2.435,5.62,1111122 